Location: Lynchburg College Observatory
(37.3822°N, 79.5391°W)
Time: 16:50:36
(UTC-05:00)

Amateur Radio Satellites - All Passes

Search period start: 23 January 2018 16:20
Search period end: 24 January 2018 16:20
Location: Lynchburg College Observatory, 37.3822°N, 79.5391°W

Satellite Date Start Highest point End Downlink Frequencies (MHz)
Time Altitude Azimuth
ITUPSAT 1 23 Jan 16:28:56 16:33:32 46° 288° (WNW) 16:38:06 437.325
MOZHAYETS 4 23 Jan 16:32:24 16:35:55 22° 292° (WNW) 16:39:23
NO-84 23 Jan 16:37:24 16:40:17 31° 319° (NW) 16:43:00 435.350 FM
BEESAT 3 23 Jan 16:41:36 16:42:11 10° 44° (NE) 16:42:46 437.485
KAITUO 1B 23 Jan 16:42:08 16:43:03 11° 66° (ENE) 16:43:58 145.475/437.950
CUBESAT XI-V 23 Jan 16:42:28 16:47:03 67° 285° (WNW) 16:51:34 437.345
NUDT-PHONESAT 23 Jan 16:47:03 16:48:22 12° 67° (ENE) 16:49:40 437.300
XW-2F 23 Jan 16:47:26 16:49:59 17° 69° (ENE) 16:52:31 145.980 - 146.000
HO-68 23 Jan 16:55:05 16:59:56 20° 58° (ENE) 17:04:46 435.675
XW-2D 23 Jan 16:59:01 17:02:16 27° 72° (ENE) 17:05:31 145.860 - 145.880
BEESAT 23 Jan 17:07:32 17:10:53 19° 294° (WNW) 17:14:13 436.000
XW-2B 23 Jan 17:16:19 17:19:56 42° 74° (ENE) 17:23:34 145.730 - 145.750
PCSat 23 Jan 17:19:04 17:22:31 17° 47° (NE) 17:25:57 145.827
CUTE-I 23 Jan 17:32:32 17:37:44 59° 73° (ENE) 17:42:57 437.470
M-CUBED/EXP-1 PRIME 23 Jan 17:33:40 17:35:15 12° 262° (W) 17:36:49 437.505
SEEDS 23 Jan 17:36:24 17:38:05 12° 65° (ENE) 17:39:45 437.485
BEESAT 2 23 Jan 17:36:35 17:37:39 11° 44° (NE) 17:38:43 435.950
KKS-1 23 Jan 17:38:22 17:42:49 65° 102° (ESE) 17:47:14 437.445
STARS 23 Jan 17:45:55 17:49:46 28° 97° (E) 17:53:35 437.465
XW-2C 23 Jan 17:46:39 17:50:28 71° 260° (W) 17:54:17 145.795 - 145.815
LilacSat-2 23 Jan 17:48:25 17:52:14 61° 259° (W) 17:56:04 437.200
RS-15 23 Jan 17:50:49 18:02:14 67° 246° (WSW) 18:13:05 29.354- 29.394
CUTE 1.7 + AOD 2 23 Jan 17:52:38 17:56:26 32° 72° (ENE) 18:00:14 437.475
nSIGHT-1 23 Jan 18:03:42 18:04:40 11° 127° (SE) 18:05:39 .
KAITUO 1B 23 Jan 18:12:56 18:16:34 46° 261° (W) 18:20:11 145.475/437.950
BEESAT 3 23 Jan 18:16:19 18:20:13 78° 241° (WSW) 18:24:02 437.485
NUDT-PHONESAT 23 Jan 18:18:14 18:21:46 41° 261° (W) 18:25:20 437.300
XW-2F 23 Jan 18:20:33 18:23:51 28° 263° (W) 18:27:08 145.980 - 146.000
ISS 23 Jan 18:28:40 18:30:28 14° 129° (SE) 18:32:16 437.550
XW-2D 23 Jan 18:33:48 18:36:24 17° 266° (W) 18:39:01 145.860 - 145.880
UWE-3 23 Jan 18:35:10 18:39:10 34° 71° (ENE) 18:43:19 435.000/436.395/437.385
CUBEBUG 2 23 Jan 18:36:00 18:40:20 65° 75° (ENE) 18:44:51 437.445
HO-68 23 Jan 18:39:44 18:46:52 76° 256° (WSW) 18:54:03 435.675
AAUSAT CUBESAT 2 23 Jan 18:41:46 18:45:16 27° 71° (ENE) 18:48:46 437.432
ZACube-1 23 Jan 18:52:04 18:55:50 27° 70° (ENE) 18:59:40 437.345
XW-2B 23 Jan 18:53:09 18:54:16 11° 268° (W) 18:55:24 145.730 - 145.750
AO-73 23 Jan 18:56:53 19:00:37 27° 70° (ENE) 19:04:26 145.935
PCSat 23 Jan 19:01:04 19:06:29 73° 245° (WSW) 19:11:52 145.827
SEEDS 23 Jan 19:09:09 19:13:16 52° 260° (W) 19:17:23 437.485
AO-85 23 Jan 19:10:34 19:14:10 19° 48° (NE) 19:17:53 145.980
BEESAT 2 23 Jan 19:11:52 19:15:53 77° 241° (WSW) 19:19:48 435.950
CUTE-I 23 Jan 19:15:06 19:18:07 15° 268° (W) 19:21:09 437.470
STRAND 1 23 Jan 19:16:40 19:21:27 37° 98° (E) 19:26:12 437.568
KKS-1 23 Jan 19:17:23 19:18:46 11° 297° (WNW) 19:20:09 437.445
STARS 23 Jan 19:22:26 19:25:56 23° 292° (WNW) 19:29:25 437.465
XW-2A 23 Jan 19:23:18 19:26:42 76° 77° (ENE) 19:30:07 145.665 - 145.685
Oscar 11 23 Jan 19:26:27 19:30:22 34° 72° (ENE) 19:34:19 .
CUTE 1.7 + AOD 2 23 Jan 19:29:17 19:32:18 19° 266° (W) 19:35:18 437.475
nSIGHT-1 23 Jan 19:37:20 19:40:27 58° 322° (NW) 19:43:34 .
ISS 23 Jan 20:03:28 20:06:37 49° 323° (NW) 20:09:48 437.550
RS-15 23 Jan 20:09:27 20:12:07 11° 266° (W) 20:14:46 29.354- 29.394
UWE-3 23 Jan 20:12:28 20:15:41 20° 267° (W) 20:18:59 435.000/436.395/437.385
AAUSAT CUBESAT 2 23 Jan 20:17:35 20:20:40 20° 265° (W) 20:23:46 437.432
DELFI C3 23 Jan 20:23:40 20:26:51 24° 71° (ENE) 20:30:02 145.870
Max Valier Satellite 23 Jan 20:24:00 20:26:12 15° 68° (ENE) 20:28:25 145.860
ZACube-1 23 Jan 20:28:21 20:32:01 25° 265° (W) 20:35:45 437.345
FO-29 23 Jan 20:30:27 20:35:39 80° 103° (ESE) 20:41:03 435.910
AO-73 23 Jan 20:33:03 20:36:45 25° 265° (W) 20:40:30 145.935
HO-68 23 Jan 20:34:37 20:35:35 10° 272° (W) 20:36:34 435.675
EO-88 23 Jan 20:35:33 20:37:17 13° 68° (ENE) 20:39:03 145.990 - 145.960
AO-85 23 Jan 20:49:57 20:54:56 61° 243° (WSW) 21:00:10 145.980
STRAND 1 23 Jan 20:56:20 21:00:23 24° 293° (WNW) 21:04:25 437.568
Oscar 11 23 Jan 21:03:33 21:06:33 18° 266° (W) 21:09:36 .
TIGRISAT 23 Jan 21:09:08 21:12:30 19° 93° (E) 21:15:51 435.000
nSIGHT-1 23 Jan 21:16:04 21:17:10 11° 340° (NNW) 21:18:15 .
UNISAT 6 23 Jan 21:24:41 21:28:52 31° 96° (E) 21:33:00 437.425
ISS 23 Jan 21:42:46 21:43:44 11° 342° (NNW) 21:44:43 437.550
LO-87 23 Jan 21:45:20 21:46:10 11° 66° (ENE) 21:47:00 145.935 - 145.965
Max Valier Satellite 23 Jan 21:56:24 21:59:43 31° 263° (W) 22:03:05 145.860
DELFI C3 23 Jan 21:58:34 22:01:30 20° 265° (W) 22:04:28 145.870
EO-88 23 Jan 22:07:14 22:10:34 34° 262° (W) 22:13:56 145.990 - 145.960
ESTCUBE 1 23 Jan 22:10:25 22:13:57 23° 68° (ENE) 22:17:30 437.505/2401.250
PRISM 23 Jan 22:12:43 22:15:37 18° 95° (E) 22:18:29 437.425
YUBILEINY 23 Jan 22:15:37 22:23:46 44° 88° (E) 22:31:54 435.215
FO-29 23 Jan 22:18:53 22:20:05 11° 299° (WNW) 22:21:18 435.910
AIST 2D 23 Jan 22:43:06 22:45:29 17° 94° (E) 22:47:51 435.315
TIGRISAT 23 Jan 22:44:56 22:49:16 38° 288° (WNW) 22:53:34 435.000
UNISAT 6 23 Jan 23:01:37 23:05:22 24° 292° (WNW) 23:09:05 437.425
SPROUT 23 Jan 23:03:23 23:06:20 19° 67° (ENE) 23:09:18 437.525
NO-84 23 Jan 23:10:57 23:13:40 41° 42° (NE) 23:16:29 435.350 FM
QB50P2 23 Jan 23:14:25 23:16:55 15° 93° (E) 23:19:25 145.880/145.840
LO-87 23 Jan 23:15:45 23:19:07 40° 261° (W) 23:22:31 145.935 - 145.965
VELOX 1 23 Jan 23:31:46 23:35:05 22° 68° (ENE) 23:38:25 145.980
DUCHIFAT 1 23 Jan 23:38:06 23:41:07 19° 94° (E) 23:44:06 145.980
EO-79 23 Jan 23:43:03 23:46:48 29° 97° (E) 23:50:30 145.935-145.965
O/OREOS (USA 219) 23 Jan 23:45:08 23:49:35 62° 108° (ESE) 23:54:01 437.305
ESTCUBE 1 23 Jan 23:46:35 23:50:34 30° 263° (W) 23:54:33 437.505/2401.250
PRISM 23 Jan 23:47:19 23:50:52 30° 289° (WNW) 23:54:26 437.425
YUBILEINY 24 Jan 00:12:34 00:20:34 38° 286° (WNW) 00:28:36 435.215
AIST 2D 24 Jan 00:15:53 00:18:34 21° 289° (WNW) 00:21:13 435.315
POLYITAN 1 24 Jan 00:18:33 00:22:51 78° 102° (ESE) 00:27:07 437.675
BUGSAT 1 24 Jan 00:26:47 00:29:05 14° 93° (E) 00:31:22 437.445
nSIGHT-1 24 Jan 00:30:42 00:32:01 12° 21° (NNE) 00:33:20 .
NANOSAT C BR1 24 Jan 00:30:55 00:35:12 86° 286° (WNW) 00:39:26 145.865
SPROUT 24 Jan 00:38:06 00:41:56 33° 263° (W) 00:45:48 437.525
AO-91 24 Jan 00:40:15 00:43:23 17° 94° (E) 00:46:40 145.960
QB50P2 24 Jan 00:48:50 00:52:50 40° 288° (WNW) 00:56:50 145.880/145.840
NO-84 24 Jan 00:50:00 00:50:31 10° 235° (SW) 00:51:03 435.350 FM
UKube-1 24 Jan 00:54:22 00:57:26 19° 67° (ENE) 01:00:31 .
ISS 24 Jan 00:57:25 00:59:14 14° 23° (NNE) 01:01:03 437.550
Oscar 19 24 Jan 01:00:41 01:04:44 23° 95° (E) 01:08:44 437.125/150
50 SAT 24 Jan 01:03:55 01:06:37 29° 73° (ENE) 01:09:21 437.505
VELOX 1 24 Jan 01:07:28 01:11:19 30° 263° (W) 01:15:11 145.980
DX 1 24 Jan 01:12:16 01:16:28 53° 74° (ENE) 01:20:41 434.975-435.025
DUCHIFAT 1 24 Jan 01:13:00 01:16:47 32° 289° (WNW) 01:20:34 145.980
Gurwin Techsat 1B 24 Jan 01:13:36 01:17:48 23° 95° (E) 01:21:59 435.225
EO-79 24 Jan 01:19:05 01:22:20 21° 292° (WNW) 01:25:35 145.935-145.965
FALCONSAT 3 24 Jan 01:26:57 01:28:42 13° 151° (SSE) 01:30:27 435.103
O/OREOS (USA 219) 24 Jan 01:27:25 01:29:23 13° 304° (NW) 01:31:23 437.305
MOZHAYETS 4 24 Jan 01:54:43 01:58:33 26° 69° (ENE) 02:02:24
ITUPSAT 1 24 Jan 01:57:34 02:00:32 17° 65° (ENE) 02:03:32 437.325
BUGSAT 1 24 Jan 02:00:34 02:04:35 42° 287° (WNW) 02:08:34 437.445
nSIGHT-1 24 Jan 02:05:32 02:08:41 65° 39° (NE) 02:11:49 .
AO-91 24 Jan 02:15:23 02:19:53 48° 286° (WNW) 02:24:47 145.960
AO-7 24 Jan 02:20:07 02:25:12 17° 92° (E) 02:30:14 .
UKube-1 24 Jan 02:29:20 02:33:12 32° 262° (W) 02:37:05 .
ISS 24 Jan 02:32:52 02:36:09 83° 41° (NE) 02:39:25 437.550
BEESAT 24 Jan 02:33:10 02:37:33 39° 71° (ENE) 02:41:59 436.000
Oscar 19 24 Jan 02:39:23 02:44:07 38° 290° (WNW) 02:48:49 437.125/150
DX 1 24 Jan 02:51:23 02:52:55 12° 268° (W) 02:54:27 434.975-435.025
Gurwin Techsat 1B 24 Jan 02:52:55 02:57:49 39° 290° (WNW) 03:02:43 435.225
FALCONSAT 3 24 Jan 03:03:47 03:07:15 40° 164° (SSE) 03:10:43 435.103
MOZHAYETS 4 24 Jan 03:31:37 03:35:34 28° 264° (W) 03:39:33
ITUPSAT 1 24 Jan 03:33:19 03:37:56 49° 260° (W) 03:42:35 437.325
CUBESAT XI-V 24 Jan 03:43:06 03:47:47 88° 257° (WSW) 03:52:30 437.345
nSIGHT-1 24 Jan 03:44:15 03:44:25 10° 233° (SW) 03:44:35 .
ITAMSAT 1 24 Jan 03:52:49 03:57:54 51° 101° (E) 04:02:57 435.822/435.867
DOVE 4 24 Jan 04:08:56 04:12:10 19° 95° (E) 04:15:29 437.250
AO-7 24 Jan 04:10:24 04:18:49 87° 287° (WNW) 04:27:09 .
BEESAT 24 Jan 04:12:01 04:15:26 19° 266° (W) 04:18:51 436.000
SO-50 24 Jan 04:17:27 04:21:43 49° 116° (ESE) 04:26:04 436.795
KKS-1 24 Jan 04:34:11 04:38:23 45° 73° (ENE) 04:42:37 437.445
STARS 24 Jan 04:40:56 04:44:08 20° 67° (ENE) 04:47:20 437.465
FALCONSAT 3 24 Jan 04:42:30 04:46:08 65° 179° (S) 04:49:46 435.103
M-CUBED/EXP-1 PRIME 24 Jan 05:11:02 05:14:10 44° 104° (ESE) 05:17:17 437.505
XW-2C 24 Jan 05:22:37 05:24:22 13° 93° (E) 05:26:07 145.795 - 145.815
LilacSat-2 24 Jan 05:24:39 05:26:55 15° 93° (E) 05:29:10 437.200
ITAMSAT 1 24 Jan 05:33:25 05:36:54 19° 296° (WNW) 05:40:24 435.822/435.867
DOVE 4 24 Jan 05:45:48 05:49:52 36° 287° (WNW) 05:54:10 437.250
KAITUO 1B 24 Jan 05:46:27 05:48:59 17° 94° (E) 05:51:30 145.475/437.950
NUDT-PHONESAT 24 Jan 05:50:35 05:53:12 18° 95° (E) 05:55:46 437.300
CUTE-I 24 Jan 05:52:00 05:56:30 27° 96° (E) 06:00:59 437.470
XW-2F 24 Jan 05:54:00 05:57:19 30° 97° (E) 06:00:35 145.980 - 146.000
SO-50 24 Jan 05:59:20 06:02:26 18° 314° (NW) 06:05:36 436.795
RS-15 24 Jan 06:00:54 06:10:02 25° 101° (E) 06:19:05 29.354- 29.394
AO-7 24 Jan 06:05:05 06:10:23 19° 307° (NW) 06:15:41 .
XW-2D 24 Jan 06:06:40 06:10:20 51° 100° (E) 06:13:57 145.860 - 145.880
HO-68 24 Jan 06:10:40 06:16:10 23° 94° (E) 06:21:39 435.675
KKS-1 24 Jan 06:12:47 06:15:08 14° 267° (W) 06:17:31 437.445
STARS 24 Jan 06:16:20 06:20:13 32° 262° (W) 06:24:09 437.465
FALCONSAT 3 24 Jan 06:21:32 06:25:01 42° 195° (SSW) 06:28:31 435.103
XW-2B 24 Jan 06:24:21 06:28:07 87° 102° (ESE) 06:31:50 145.730 - 145.750
CUBEBUG 2 24 Jan 06:29:41 06:32:52 18° 92° (E) 06:36:01 437.445
STRAND 1 24 Jan 06:30:29 06:35:16 43° 71° (ENE) 06:40:05 437.568
FO-29 24 Jan 06:40:35 06:46:10 29° 68° (ENE) 06:51:13 435.910
SEEDS 24 Jan 06:55:00 06:58:36 27° 96° (E) 07:02:09 437.485
XW-2C 24 Jan 06:55:13 06:58:39 34° 287° (WNW) 07:02:03 145.795 - 145.815
LilacSat-2 24 Jan 06:57:54 07:01:13 29° 288° (WNW) 07:04:30 437.200
CUTE 1.7 + AOD 2 24 Jan 07:14:27 07:18:41 86° 108° (ESE) 07:22:51 437.475
KAITUO 1B 24 Jan 07:19:52 07:22:54 24° 289° (WNW) 07:25:55 145.475/437.950
NUDT-PHONESAT 24 Jan 07:24:01 07:26:57 23° 289° (WNW) 07:29:52 437.300
XW-2F 24 Jan 07:28:54 07:31:07 15° 292° (WNW) 07:33:20 145.980 - 146.000
CUTE-I 24 Jan 07:31:47 07:36:31 34° 291° (WNW) 07:41:16 437.470
HO-68 24 Jan 07:57:15 08:04:15 60° 290° (WNW) 08:11:15 435.675
PCSat 24 Jan 07:59:07 08:02:50 19° 105° (ESE) 08:06:34 145.827
AAUSAT CUBESAT 2 24 Jan 08:00:06 08:04:11 68° 101° (E) 08:08:16 437.432
FALCONSAT 3 24 Jan 08:01:35 08:03:36 14° 208° (SSW) 08:05:37 435.103
UWE-3 24 Jan 08:02:23 08:07:04 81° 283° (WNW) 08:11:38 435.000/436.395/437.385
BEESAT 3 24 Jan 08:03:42 08:07:03 26° 113° (ESE) 08:10:25 437.485
CUBEBUG 2 24 Jan 08:05:07 08:09:37 42° 287° (WNW) 08:14:02 437.445
TIGRISAT 24 Jan 08:06:55 08:09:03 13° 64° (ENE) 08:11:12 435.000
RS-15 24 Jan 08:08:46 08:21:08 83° 300° (WNW) 08:33:23 29.354- 29.394
STRAND 1 24 Jan 08:10:59 08:14:36 19° 266° (W) 08:18:15 437.568
ZACube-1 24 Jan 08:17:37 08:22:09 75° 102° (ESE) 08:26:34 437.345
XW-2A 24 Jan 08:19:01 08:22:22 75° 283° (WNW) 08:25:40 145.665 - 145.685
UNISAT 6 24 Jan 08:21:50 08:25:12 21° 68° (ENE) 08:28:37 437.425
AO-73 24 Jan 08:22:00 08:26:31 73° 102° (ESE) 08:30:54 145.935
FO-29 24 Jan 08:24:40 08:31:03 42° 261° (W) 08:36:46 435.910
YUBILEINY 24 Jan 08:29:24 08:35:04 18° 65° (ENE) 08:40:41 435.215
SEEDS 24 Jan 08:30:58 08:34:05 21° 291° (WNW) 08:37:11 437.485
Oscar 11 24 Jan 08:51:02 08:55:22 86° 279° (W) 08:59:39 .
BEESAT 2 24 Jan 09:00:51 09:04:18 28° 113° (ESE) 09:07:47 435.950
PRISM 24 Jan 09:02:03 09:02:51 10° 64° (ENE) 09:03:39 437.425
JUGNU 24 Jan 09:19:28 09:21:38 12° 173° (S) 09:23:48 437.505
Max Valier Satellite 24 Jan 09:28:00 09:31:04 24° 96° (E) 09:34:06 145.860
DELFI C3 24 Jan 09:35:52 09:39:42 52° 99° (E) 09:43:33 145.870
EO-88 24 Jan 09:37:47 09:40:32 20° 95° (E) 09:43:15 145.990 - 145.960
PCSat 24 Jan 09:40:30 09:45:46 52° 301° (WNW) 09:51:04 145.827
TIGRISAT 24 Jan 09:40:50 09:45:10 55° 260° (W) 09:49:39 435.000
BEESAT 3 24 Jan 09:41:14 09:44:30 24° 308° (NW) 09:47:48 437.485
O/OREOS (USA 219) 24 Jan 09:57:03 10:01:33 84° 70° (ENE) 10:06:02 437.305
UNISAT 6 24 Jan 09:57:41 10:01:39 32° 263° (W) 10:05:45 437.425
AO-73 24 Jan 10:01:49 10:02:03 10° 297° (WNW) 10:02:15 145.935
YUBILEINY 24 Jan 10:24:12 10:32:56 84° 265° (W) 10:41:38 435.215
RS-15 24 Jan 10:25:34 10:35:40 28° 326° (NW) 10:45:38 29.354- 29.394
DUCHIFAT 1 24 Jan 10:29:35 10:30:48 11° 64° (ENE) 10:32:02 145.980
PRISM 24 Jan 10:33:36 10:37:35 57° 259° (W) 10:41:35 437.425
EO-79 24 Jan 10:34:04 10:36:51 17° 67° (ENE) 10:39:39 145.935-145.965
BEESAT 2 24 Jan 10:38:44 10:41:59 23° 309° (NW) 10:45:16 435.950
LO-87 24 Jan 10:45:00 10:47:20 16° 94° (E) 10:49:40 145.935 - 145.965
AIST 2D 24 Jan 10:46:38 10:50:08 88° 93° (E) 10:53:39 435.315
Max Valier Satellite 24 Jan 11:02:08 11:04:41 18° 291° (WNW) 11:07:11 145.860
AO-85 24 Jan 11:02:40 11:06:33 74° 119° (ESE) 11:10:44 145.980
JUGNU 24 Jan 11:07:11 11:09:46 13° 184° (S) 11:12:20 437.505
POLYITAN 1 24 Jan 11:08:42 11:12:42 42° 73° (ENE) 11:16:44 437.675
EO-88 24 Jan 11:11:17 11:14:02 21° 290° (WNW) 11:16:46 145.990 - 145.960
DELFI C3 24 Jan 11:13:07 11:13:57 11° 295° (WNW) 11:14:47 145.870
NANOSAT C BR1 24 Jan 11:20:27 11:24:31 51° 74° (ENE) 11:28:38 145.865
SRMSAT 24 Jan 11:36:38 11:37:34 10° 169° (S) 11:38:29 437.500
QB50P2 24 Jan 11:38:33 11:42:46 73° 259° (W) 11:47:02 145.880/145.840
ESTCUBE 1 24 Jan 11:40:14 11:44:42 64° 101° (ESE) 11:49:07 437.505/2401.250
DUCHIFAT 1 24 Jan 12:01:46 12:05:53 58° 259° (W) 12:10:05 145.980
EO-79 24 Jan 12:08:24 12:12:17 36° 262° (W) 12:16:13 145.935-145.965
Oscar 19 24 Jan 12:15:25 12:19:48 28° 68° (ENE) 12:24:12 437.125/150
LO-87 24 Jan 12:17:39 12:20:42 26° 288° (WNW) 12:23:44 145.935 - 145.965
YUBILEINY 24 Jan 12:24:19 12:28:17 14° 283° (WNW) 12:32:15 435.215
SPROUT 24 Jan 12:25:02 12:29:09 44° 99° (E) 12:33:15 437.525
Gurwin Techsat 1B 24 Jan 12:32:35 12:37:12 31° 68° (ENE) 12:41:50 435.225
AO-85 24 Jan 12:46:06 12:47:34 12° 318° (NW) 12:49:04 145.980
POLYITAN 1 24 Jan 12:46:23 12:48:39 14° 268° (W) 12:50:56 437.675
RS-15 24 Jan 12:47:21 12:54:11 16° 1° (N) 13:00:52 29.354- 29.394
BUGSAT 1 24 Jan 12:47:27 12:51:31 84° 260° (W) 12:55:41 437.445
SO-50 24 Jan 12:50:29 12:54:33 28° 51° (NE) 12:58:39 436.795
VELOX 1 24 Jan 12:58:33 13:02:53 55° 100° (E) 13:07:12 145.980
NANOSAT C BR1 24 Jan 12:59:03 13:00:30 11° 269° (W) 13:01:56 145.865
DX 1 24 Jan 13:05:16 13:05:55 10° 91° (E) 13:06:34 434.975-435.025
AO-91 24 Jan 13:11:24 13:14:44 67° 259° (WSW) 13:18:15 145.960
AO-7 24 Jan 13:17:03 13:23:11 23° 55° (NE) 13:29:19 .
ESTCUBE 1 24 Jan 13:19:28 13:20:54 11° 297° (WNW) 13:22:20 437.505/2401.250
SRMSAT 24 Jan 13:22:58 13:25:51 14° 179° (S) 13:28:46 437.500
50 SAT 24 Jan 13:51:15 13:54:00 29° 98° (E) 13:56:45 437.505
Oscar 19 24 Jan 13:54:23 13:58:58 32° 263° (W) 14:03:36 437.125/150
SPROUT 24 Jan 14:02:14 14:04:38 15° 294° (WNW) 14:07:01 437.525
Gurwin Techsat 1B 24 Jan 14:12:29 14:17:03 29° 264° (W) 14:21:40 435.225
UKube-1 24 Jan 14:17:39 14:21:47 44° 100° (E) 14:25:54 .
NO-84 24 Jan 14:25:18 14:26:34 12° 125° (SE) 14:27:48 435.350 FM
SO-50 24 Jan 14:30:47 14:35:01 32° 246° (WSW) 14:39:15 436.795
VELOX 1 24 Jan 14:36:53 14:38:49 13° 296° (WNW) 14:40:45 145.980
BEESAT 24 Jan 14:37:36 14:38:56 11° 91° (E) 14:40:17 436.000
DX 1 24 Jan 14:38:08 14:42:26 60° 286° (WNW) 14:46:42 434.975-435.025
RS-15 24 Jan 15:02:17 15:12:21 31° 37° (NE) 15:21:56 29.354- 29.394
AO-7 24 Jan 15:06:41 15:15:03 78° 254° (WSW) 15:23:28 .
ITAMSAT 1 24 Jan 15:08:40 15:13:46 65° 73° (ENE) 15:18:54 435.822/435.867
SRMSAT 24 Jan 15:12:21 15:14:10 11° 189° (S) 15:16:00 437.500
DOVE 4 24 Jan 15:13:52 15:16:01 14° 67° (ENE) 15:18:10 437.250
50 SAT 24 Jan 15:24:45 15:25:21 10° 293° (WNW) 15:25:57 437.505
MOZHAYETS 4 24 Jan 15:27:41 15:32:19 79° 102° (ESE) 15:36:55
ITUPSAT 1 24 Jan 15:35:34 15:40:14 48° 100° (E) 15:44:51 437.325
CUBESAT XI-V 24 Jan 15:42:08 15:45:58 26° 96° (E) 15:49:46 437.345
M-CUBED/EXP-1 PRIME 24 Jan 15:53:43 15:57:49 46° 69° (ENE) 16:01:39 437.505
UKube-1 24 Jan 15:54:56 15:57:23 15° 295° (WNW) 15:59:51 .
NO-84 24 Jan 16:00:20 16:03:29 46° 318° (NW) 16:06:24 435.350 FM
